Regional Weather Roundup
Issued by NWS

Home | Current Version | Previous Version | Graphics & Text | Print | Product List | Glossary On
Versions: 1 2 3 4 5 6 7 8 9 10 11 12 13 14 15 16 17 18 19 20 21 22 23 24 25 26 27 28 29 30 31 32 33 34 35 36 37 38 39 40 41 42 43 44 45 46 47 48 49 50
000
ASUS43 KBIS 270020
RWRND

NORTH DAKOTA REGIONAL WEATHER ROUNDUP
NATIONAL WEATHER SERVICE BISMARCK ND
700 PM CDT TUE MAY 26 2015

NOTE: "FAIR" INDICATES FEW OR NO CLOUDS BELOW 12,000 FEET WITH NO
SIGNIFICANT WEATHER AND/OR OBSTRUCTIONS TO VISIBILITY.


NDZ001>003-009>011-017-270100-
NORTHWEST NORTH DAKOTA

CITY           SKY/WX    TMP DP  RH WIND       PRES   REMARKS
WILLISTON      SUNNY     80  40  23 VRB3      29.86S
6HR MIN TEMP:  76; 6HR MAX TEMP:  82;

MINOT          PTSUNNY   69  51  52 E8        29.86R
MINOT AFB      TSTM      64  59  82 NE8       29.89R
$$

NDZ018>021-031>035-040>046-270100-
SOUTHWEST NORTH DAKOTA

CITY           SKY/WX    TMP DP  RH WIND       PRES   REMARKS
BISMARCK       PTSUNNY   75  50  41 SE9       29.87R
6HR MIN TEMP:  72; 6HR MAX TEMP:  83; 6HR PCP: TRACE;

DICKINSON      PTSUNNY   75  42  30 SW10      29.88F
GARRISON         N/A     76  44  32 E8        29.86F
6HR MIN TEMP:  68; 6HR MAX TEMP:  82;

HETTINGER ARPT SUNNY     72  48  42 SE6       29.92F
$$

NDZ004>008-012>016-024-026-027-054-270100-
NORTHEAST NORTH DAKOTA

CITY           SKY/WX    TMP DP  RH WIND       PRES   REMARKS
GRAND FORKS    PTSUNNY   81  49  32 NW5       29.71F
GRND FRKS AFB  PTSUNNY   77  55  46 W6        29.73F
DEVILS LAKE    MOSUNNY   79  45  29 W12       29.78R
$$

NDZ022-023-025-028>030-036>039-047>053-270100-
SOUTHEAST NORTH DAKOTA

CITY           SKY/WX    TMP DP  RH WIND       PRES   REMARKS
FARGO          CLOUDY    77  56  48 SW12      29.75F
6HR MIN TEMP:  72; 6HR MAX TEMP:  77;

JAMESTOWN      PTSUNNY   73  48  41 SW6       29.78F
$$



USA.gov is the U.S. government's official web portal to all federal, state and local government web resources and services.